www.pogodaiklimat.ru

Погода и климат >> Архив погоды >> Боливия >> Тринидад


ПОГОДА в Тринидаде

  • Прогноз погоды в Тринидаде
  • Монитор погоды в Тринидаде

АРХИВ ПОГОДЫ в Тринидаде

Время (UTC), дата Ветер
(напр.,м/с)
 
Видим.   Явления Облачность Т
(С)
Тd
(С)
f
(%)
Тe
(С)
Тes
(С)
Комфортность P
(гПа)
Po
(гПа)
Тmin
(С)
Tmax
(С)
R
(мм)
R24
(мм)
S
(см)
12 9.06 ЮВ 4 8000 м осадки на расстоянии 10/5 450 м
[Cb cap As op]
+20.0 +17.2 84 +23 +23 комфорт 1017.0 999.2 +19.2 0.5
15 9.06 ЮВ 2 20 км 10/4 600 м
[Sc As op]
+21.6 +17.0 75 +26 +27 душно 1018.0 999.8
18 9.06 штиль 0 20 км 9/0 2000 м
[Ac trans]
+23.8 +18.9 74 +29 +35 душно 1015.7 997.6
21 9.06 штиль 0 20 км 9/0 2000 м
[Ac trans Ci sp]
+24.0 +20.4 80 +30 +30 очень
душно
1013.3 995.3 +26.5
09 10.06 штиль 0 5000 м 8/0
[Ci sp]
+19.0 +18.4 96 +21 +21 комфорт 1013.1 995.0
12 10.06 штиль 0 5000 м дымка 4/0 2000 м
[Ac trans Ci fib]
+19.4 +19.1 98 +22 +24 комфорт 1014.9 996.7 +16.4
15 10.06 СЗ 2 20 км 4/1 500 м
[Cu hum Ac trans]
+27.7 +23.3 77 +37 +46 очень
душно
1015.1 997.1
18 10.06 СЗ 3 20 км 6/1 500 м
[Cu hum Ac trans]
+29.0 +22.6 68 +38 +43 очень
душно
1013.0 995.1
21 10.06 С 2 20 км 4/1 500 м
[Cu hum Ci fib]
+30.0 +23.1 67 +40 +41 очень
душно
1011.6 993.8 +30.7
09 11.06 штиль 0 20 км 5/0
[Ci sp]
+20.8 +19.9 95 +25 +25 комфорт 1012.1 994.2
12 11.06 штиль 0 20 км ясно +22.2 +20.2 88 +28 +31 душно 1014.1 996.0 +20.2
15 11.06 СЗ 4 20 км 1/1 500 м
[Cu hum]
+28.6 +23.8 75 +39 +46 очень
душно
1014.8 996.7
18 11.06 СЗ 2 20 км 4/3 500 м
[Cu hum Ci fib]
+31.0 +22.7 61 +41 +48 опасность
перегрева
1012.1 994.3
21 11.06 С 2 20 км 8/1 500 м
[Cu hum Ci]
+30.8 +23.1 64 +41 +42 опасность
перегрева
1010.7 992.9 +31.9
09 12.06 штиль 0 20 км 6/0
[Ci]
+21.2 +20.3 95 +26 +26 душно 1011.9 993.9
12 12.06 штиль 0 6000 м дымка 5/0
[Ci fib]
+22.2 +21.6 96 +29 +31 очень
душно
1013.7 995.7 +20.0
15 12.06 С 3 20 км 5/0
[Ci fib]
+29.6 +23.3 69 +40 +49 очень
душно
1014.1 996.2
18 12.06 СЗ 4 20 км 4/1 600 м
[Cu hum Ci fib]
+31.6 +23.0 60 +42 +48 опасность
перегрева
1012.1 994.2
21 12.06 С 3 20 км 6/1 600 м
[Cu hum Ci]
+31.2 +21.7 57 +40 +40 очень
душно
1011.1 993.3 +32.6
12 13.06 С 2 20 км 8/0
[Ci]
+23.0 +21.6 92 +31 +32 очень
душно
1013.4 995.5 +20.5
15 13.06 С 4 20 км 8/1 600 м
[Cu hum Ci]
+28.8 +23.6 74 +39 +45 очень
душно
1015.2 997.4
18 13.06 СЗ 3 20 км 6/3 600 м
[Cu med, cong Ac cuf]
+30.8 +23.4 65 +42 +46 опасность
перегрева
1012.4 994.6
21 13.06 С 2 20 км 8/1 600 м
[Cu med, cong Ac cuf]
+29.6 +23.3 69 +40 +40 очень
душно
1010.9 993.1 +31.6
09 14.06 штиль 0 20 км 5/0 2000 м
[Ac trans]
+22.2 +21.3 95 +29 +29 очень
душно
1012.1 994.2
12 14.06 штиль 0 20 км 8/0 2000 м
[Ac trans]
+23.0 +21.7 92 +31 +32 очень
душно
1014.0 996.0 +20.5
15 14.06 С 3 20 км 4/1 600 м
[Cu hum Ac trans Ci fib]
+29.1 +22.9 69 +39 +47 очень
душно
1014.9 997.0
18 14.06 СЗ 4 20 км 4/3 600 м
[Cu hum Ac trans Ci fib]
+31.4 +23.3 62 +42 +47 опасность
перегрева
1012.1 994.4
21 14.06 С 2 20 км 5/1 600 м
[Cu hum Ac trans]
+30.0 +23.1 67 +40 +41 очень
душно
1010.5 992.8 +32.5
09 15.06 штиль 0 20 км 5/0 2000 м
[Ac trans]
+22.4 +21.5 95 +30 +30 очень
душно
1011.6 993.9
12 15.06 штиль 0 20 км 4/0 2000 м
[Ac trans]
+23.0 +22.1 95 +31 +33 очень
душно
1013.4 995.4 +21.4
15 15.06 С 4 20 км 5/0
[Ac trans Ci fib]
+30.0 +23.1 67 +40 +48 очень
душно
1014.1 996.2
18 15.06 С 2 20 км 6/3 600 м
[Cu hum Ci sp]
+32.1 +22.9 58 +42 +49 опасность
перегрева
1011.7 993.9
21 15.06 штиль 0 8000 м осадки на расстоянии 8/3 600 м
[Cb cap Ci sp]
+30.4 +23.4 66 +41 +42 опасность
перегрева
1010.9 993.1 +32.6

 

Местоположение метеостанции Тринидад (Боливия): широта -14.81 долгота -64.91 высота над уровнем моря 155 м.

В архиве по умолчанию представлена погода в Тринидаде за последнюю неделю. Архивные данные за месяц целиком и за предыдущие месяцы, начиная с января 2011 года, Вы можете получить, выбрав интересующий диапазон дат из раскрывающегося списка и нажав кнопку "Ввод!".


*Определитесь, кто Вы:
робот инопланетянин человек

Внимание! Время в таблицах - всемирное. Для получения местного времени необходимо прибавить поправку, которая равна -4 ч.

Смотрите также архив погоды в соседних городах и на ближайших метеорологических станциях:

Погода в Сан Игнасио де Moксосе (Боливия) (75 км)
Погода в Санта-Ане (Боливия) (130 км)
Погода в Бауресе (Боливия) (131 км)
Погода в Сан-Рамоне (Боливия) (169 км)
Погода в Магдалене (Боливия) (186 км)
Погода в Сан-Хоакине (Боливия) (195 км)
Погода в Сан-Борхе (Боливия) (210 км)
Погода в Ассенсьон де Гуарае (Боливия) (218 км)
Погода в Санта-Розе (Боливия) (226 км)
Погода в Рейесе (Боливия) (272 км)

Пояснения к столбцам:

Ветер - указаны скорость ветра в м/с - средняя за 10 мин, порывы в срок и между сроками (в фигурных скобках) и направление, откуда дует ветер: С - северный, СВ - северо-восточный, В - восточный, ЮВ - юго-восточный, Ю - южный, ЮЗ - юго-западный, З - западный, СЗ - северо-западный.
Видимость - горизонтальная дальность видимости в метрах или километрах. При видимости от 1 до 10 км при отсутствии осадков обычно наблюдается дымка, при ухудшении видимости до 1 км и менее - туман. В сухую погоду видимость может ухудшаться дымом, пылью или мглою.
Явления - указаны атмосферные явления, наблюдавшиеся в срок или в последний час перед сроком; фигурными скобками обозначены явления, наблюдавшиеся между сроками (за 1-3 часа до срока); квадратными скобками обозначены град или гололедные отложения с указанием их диаметра в мм.
Облачность - указаны через наклонную черту общая и нижняя облачность в баллах и высота нижней границы облаков в метрах; квадратными скобками обозначены формы облаков: Ci - перистые, Cs - перисто-слоистые, Cc - перисто-кучевые, Ac - высококучевые, As - высокослоистые, Sc - слоисто-кучевые, Ns - слоисто-дождевые, Cu - кучевые, Cb - кучево-дождевые. Подробнее классификацию облаков см. в Атласе облаков (PDF).
T - Температура воздуха - температура, измеренная на высоте 2 м над землей.
Td - Температура точки росы - температура, при понижении до которой содержащийся в воздухе водяной пар достигнет насыщения.
f - Относительная влажность воздуха - влажноcть воздуха, измеренная на высоте 2 м над землей.
Te - Эффективная температура - температура, которую ощущает одетый по сезону человек в тени. Характеристика душности погоды. При расчете учитывается влияние влажности воздуха и скорости ветра на теплоощущения человека.
Tes - Эффективная температура на солнце - температура, которую ощущает человек, с поправкой на солнечный нагрев. Характеристика знойности погоды. Зависит от высоты солнца над горизонтом, облачности и скорости ветра. Ночью, в пасмурную погоду, а также при ветре 12 м/с и более поправка равна нулю.
P - Атмосферное давление - приведенное к уровню моря атмосферное давление.
Po - Атмосферное давление - измеренное на уровне метеостанции атмосферное давление.
Tmin - Минимальная температура - минимум температуры воздуха на высоте 2 м над землей.
Tmax - Максимальная температура - максимум температуры воздуха на высоте 2 м над землей.
R - Количество осадков - Количество выпавших осадков за период времени, мм. При наведении курсора мыши на число - период времени, за который выпало указанное количество осадков.
R24 - Количество осадков - Количество выпавших осадков за 24 часа, мм.
S - Снежный покров - Высота снежного покрова, см. При наведении курсора мыши на число - состояние снежного покрова и степень покрытия местности в баллах.